Jogging du foot de Bolland
Jogging du foot de Bolland 13/07/2018 - 9 km
Mise à jour le : 13/07/2018 à 21:20
Classement définitif, aucune correction possible
Place Nom Prénom Dossard Temps Vitesse Allure Place. Cat. Catégorie
1 TERRITO JOAKIM 892 32:19 16,70 3:35 1 Séniors
2 TIMMERMANN ALEXANDRE 656 32:51 16,43 3:39 2 Séniors
3 SCHYNS REMI 902 32:57 16,39 3:39 1 Espoirs Garçons
4 DEMIRKAZAN MIKAIL 172 33:57 15,90 3:46 3 Séniors
5 DUMOULIN MAXIME 250 34:26 15,68 3:49 4 Séniors
6 VERVIER ARNAUD 428 34:37 15,59 3:50 5 Séniors
7 BAAR GREGORY 49 35:24 15,25 3:56 6 Séniors
8 COLEMAN JAMAINE 901 35:55 15,03 3:59 7 Séniors
9 VROMEN PIERRE-YVES 675 36:01 14,99 4:00 8 Séniors
10 DEMONCEAU JEAN LUC 157 36:09 14,94 4:01 1 Vétérans 2
11 HOGGE GAETAN 747 36:10 14,93 4:01 9 Séniors
12 BOULANGER BRYAN 107 36:57 14,61 4:06 10 Séniors
13 DEJALLE GAETAN 147 37:02 14,58 4:06 11 Séniors
14 LOCHT MICHEL 455 37:04 14,57 4:07 1 Vétérans 1
15 BRODEL MARTIN 133 37:09 14,53 4:07 12 Séniors
16 DELCOUR PHILIPPE 190 37:12 14,51 4:08 2 Vétérans 1
17 HECK NICOLAS 855 37:16 14,49 4:08 13 Séniors
18 HECK MARC 854 37:17 14,48 4:08 3 Vétérans 1
19 DUCROCQ FELIX 832 37:19 14,47 4:08 14 Séniors
20 DORTU OLIVIER 853 37:22 14,45 4:09 4 Vétérans 1
21 LEHAEN PIERRE-OLIVIER 436 37:34 14,37 4:10 5 Vétérans 1
22 HAINE GAEL 330 37:35 14,36 4:10 15 Séniors
23 HUPPERETZ PATRICK 356 38:02 14,20 4:13 6 Vétérans 1
24 CORBUSIER NICOLAS 117 38:10 14,14 4:14 16 Séniors
25 HENRARD RAPHAEL 856 38:15 14,12 4:15 17 Séniors
26 VANHULST BENOIT 662 38:18 14,10 4:15 18 Séniors
27 PIRENNE ANTOINE 538 38:27 14,04 4:16 2 Espoirs Garçons
28 HUTSCHEMACKERS COLIN 331 38:27 14,04 4:16 3 Espoirs Garçons
29 LECLOUX SEBASTIEN 869 38:32 14,01 4:16 7 Vétérans 1
30 JANDRAIN FRANCOIS 381 38:33 14,00 4:17 8 Vétérans 1
31 BECKERS BENOIT 12 38:34 14,00 4:17 9 Vétérans 1
32 NICOLAS FRANCIS 549 38:41 13,95 4:17 2 Vétérans 2
33 CIOMEK FREDERIC 97 38:44 13,94 4:18 10 Vétérans 1
34 PETERS TOBIAS 522 39:04 13,82 4:20 19 Séniors
35 BRANS BENOIT 835 39:09 13,79 4:21 20 Séniors
36 DEBIOLLE FREDERIC 206 39:27 13,68 4:23 21 Séniors
37 CHOUIBA MOHAMED 153 39:29 13,67 4:23 3 Vétérans 2
38 BEUKEN SERGE 77 39:30 13,67 4:23 4 Vétérans 2
39 STASSEN RENAUD 870 39:40 13,61 4:24 22 Séniors
40 GENREITH GREGORY 301 39:41 13,60 4:24 23 Séniors
41 CRAHAY DAVID 879 39:51 13,55 4:25 11 Vétérans 1
42 DAMBLON PATRICK 167 40:07 13,46 4:27 5 Vétérans 2
43 DEWEZ JULIEN 836 40:17 13,40 4:28 4 Espoirs Garçons
44 TSAGKAS CASSANDRA 893 40:28 13,34 4:29 1 Dames
45 LANGE MICHAEL 374 40:36 13,30 4:30 12 Vétérans 1
46 PONCELET STEPHAN 830 40:43 13,26 4:31 6 Vétérans 2
47 BEUVENS FREDERIC 911 41:01 13,16 4:33 13 Vétérans 1
48 LEJACQUES THIBAUT 810 41:03 13,15 4:33 24 Séniors
49 DESSOUROUX JEAN 227 41:10 13,11 4:34 1 Vétérans 3
50 FONTAINE SERGE 291 41:11 13,11 4:34 14 Vétérans 1
51 LEDENT MATHIEU 834 41:21 13,06 4:35 25 Séniors
52 BOUCKAERT STEPHANE 818 41:35 12,98 4:37 26 Séniors
53 COOSEMANS MATHIEU 814 41:42 12,95 4:38 5 Espoirs Garçons
54 MEENS ADRIEN 928 41:45 12,93 4:38 27 Séniors
55 COLLINS BRENDAN 929 41:47 12,92 4:38 28 Séniors
56 LEVAUX JOACHIM 878 41:48 12,91 4:38 29 Séniors
57 CALIFICE BERTRAND 143 41:50 12,91 4:38 30 Séniors
58 GRIFNEE PIERRE 882 41:53 12,89 4:39 6 Espoirs Garçons
59 CANALES ALBERTO 130 41:55 12,88 4:39 2 Vétérans 3
60 CHALSECHE STEPHANE 846 42:04 12,83 4:40 15 Vétérans 1
61 DORTU ARNAUD 324 42:06 12,82 4:40 31 Séniors
62 DORTU BASTIAN 173 42:08 12,82 4:40 32 Séniors
63 JACOBY ANAIK 906 42:20 12,75 4:42 33 Séniors
64 LONNEUX MARCEL 458 42:31 12,70 4:43 7 Vétérans 2
65 SOMJA VICTOR 527 42:40 12,66 4:44 3 Vétérans 3
66 LUXEN BENOIT 740 43:08 12,52 4:47 8 Vétérans 2
67 PILLIITTERI CARMELO 859 43:09 12,51 4:47 9 Vétérans 2
68 REMACLE ROMAIN 831 43:11 12,50 4:47 34 Séniors
69 DEMOULIN ANNE-SOPHIE 251 43:17 12,47 4:48 1 Ainées 1
70 JORIS JONATHAN 829 43:29 12,42 4:49 35 Séniors
71 COUNE JEROME 921 43:31 12,41 4:50 36 Séniors
72 REGNIER SIMON 885 43:44 12,35 4:51 37 Séniors
73 SIMONIS ALAIN 903 43:46 12,34 4:51 10 Vétérans 2
74 NADENOEN OLIVIER 487 43:58 12,28 4:53 16 Vétérans 1
75 DELHAYE MICHEL 909 44:00 12,27 4:53 38 Séniors
76 PACEK FRANCOIS 883 44:02 12,26 4:53 39 Séniors
77 ANTOINE ROGER 821 44:04 12,25 4:53 11 Vétérans 2
78 HEUCHENNE SAMUEL 919 44:09 12,23 4:54 40 Séniors
79 MATHURIN LOUIS 866 44:16 12,20 4:55 7 Espoirs Garçons
80 DONNEAU PIERRE 315 44:29 12,14 4:56 41 Séniors
81 PIRARD PHILIPPE 547 44:32 12,13 4:56 42 Séniors
82 MARGANNE PIERRE 914 44:38 12,10 4:57 43 Séniors
83 SIMONS CHRISTOPHE 923 44:39 12,09 4:57 44 Séniors
84 VANDEPUTTE PASCAL 905 44:41 12,08 4:57 17 Vétérans 1
85 DONY PHILIPPE 273 44:42 12,08 4:58 18 Vétérans 1
86 SOMJA JEAN-PHILIPPE 532 44:50 12,04 4:58 45 Séniors
87 PIRENNE AURELIEN 802 45:01 11,99 5:00 8 Espoirs Garçons
88 PISCART FRANCOISE 348 45:04 11,98 5:00 1 Ainées 2
89 MEERTENS PASCAL 931 45:07 11,97 5:00 46 Séniors
90 FRANQUET NICOLAS 840 45:23 11,89 5:02 47 Séniors
91 BYNENS NICOLAS 138 45:34 11,85 5:03 4 Vétérans 3
92 PIRARD MARTIN 822 45:37 11,84 5:04 48 Séniors
93 HEINS LUC 858 45:39 11,83 5:04 5 Vétérans 3
94 SIMAR THOMAS 602 45:43 11,81 5:04 49 Séniors
95 KEVELAER BEATRICE 361 45:45 11,80 5:05 2 Ainées 2
96 COLLARD SERGE 145 45:47 11,79 5:05 12 Vétérans 2
97 DALLA CORTE LUDOVIC 193 45:49 11,78 5:05 50 Séniors
98 BECKERS JOEL 897 46:06 11,71 5:07 19 Vétérans 1
99 HEINRICHS GREGORY 346 46:07 11,71 5:07 51 Séniors
100 GAILLARD JEROME 808 46:10 11,70 5:07 52 Séniors
101 CANALES MIGUEL 817 46:14 11,68 5:08 53 Séniors
102 FAUTRE JEAN-CLAUDE 850 46:17 11,66 5:08 6 Vétérans 3
103 TERF MICHEL 486 46:21 11,65 5:09 13 Vétérans 2
104 CORTLEVEN WILLY 804 46:22 11,64 5:09 1 Vétérans 4
105 LEINARTZ LAURENT 847 46:24 11,63 5:09 54 Séniors
106 ETIENNE LAURE 285 46:35 11,59 5:10 2 Dames
107 LOOZEN FREDERIC 912 46:39 11,58 5:11 55 Séniors
108 LEMOINE GUILLAUME 816 46:46 11,54 5:11 9 Espoirs Garçons
109 HEUSSCHEN DOMINIQUE 359 47:08 11,45 5:14 14 Vétérans 2
110 BISSOT CLEMENT 872 47:15 11,43 5:15 56 Séniors
111 PIRENNE JULIE 841 47:18 11,41 5:15 3 Dames
112 CRASSON VINCENT 813 47:20 11,41 5:15 15 Vétérans 2
113 RAES GUY 807 47:42 11,32 5:18 7 Vétérans 3
114 SERVAIS ADRIEN 876 47:43 11,31 5:18 57 Séniors
115 HURLET LUCIEN 724 47:44 11,31 5:18 8 Vétérans 3
116 COOSEMANS JOEL 815 47:48 11,30 5:18 20 Vétérans 1
117 LOGNARD STEPHANIE 406 48:00 11,25 5:20 4 Dames
118 BIDOUL GIL 75 48:01 11,24 5:20 58 Séniors
119 DOSSERAY ROGER 244 48:04 11,23 5:20 2 Vétérans 4
120 AKKERMANS FABRICE 842 48:14 11,19 5:21 59 Séniors
121 LUXEN OLIVIER 741 48:22 11,16 5:22 60 Séniors
122 DELBRASSINE NIELS 913 48:25 11,15 5:22 61 Séniors
123 VERCAMMEN MICHEL 427 48:28 11,14 5:23 21 Vétérans 1
124 DARCIS JOEL 899 48:32 11,12 5:23 62 Séniors
125 BEAUWENS MAGALI 59 48:35 11,11 5:23 2 Ainées 1
126 COLOT GUILLAUME 918 48:36 11,11 5:24 63 Séniors
127 SCHROUFF WILLY 890 48:37 11,10 5:24 64 Séniors
128 DELREZ SANDRA 238 48:39 11,10 5:24 3 Ainées 2
129 BECKERS ANAIS 898 49:15 10,96 5:28 1 Espoirs Filles
130 LAMBERT CHRISTOPHE 413 49:16 10,96 5:28 65 Séniors
131 CARABIN PHILIPPE 833 49:18 10,95 5:28 9 Vétérans 3
132 ROGISTER JEROME 875 49:21 10,94 5:29 66 Séniors
133 SARLET JULIE 571 49:31 10,90 5:30 5 Dames
134 WEUSTEN CEDRIC 444 49:33 10,90 5:30 67 Séniors
135 FRANKEN TIMEO 820 49:51 10,83 5:32 10 Espoirs Garçons
136 THONON MARIE-PIERRE 405 49:57 10,81 5:33 6 Dames
137 DEWAIDE NICOLAS 888 50:05 10,78 5:33 22 Vétérans 1
138 COLLIN DIDIER 874 50:15 10,74 5:35 16 Vétérans 2
139 NAHON SYLVIE 516 50:20 10,73 5:35 4 Ainées 2
140 PETERKENNE GAETAN 871 50:21 10,72 5:35 68 Séniors
141 WADELEUX CLAUDE MICHEL 826 50:25 10,71 5:36 69 Séniors
142 HUMBLET NICOLAS 811 50:33 10,68 5:37 70 Séniors
143 LEJEUNE DAVID 553 50:34 10,68 5:37 23 Vétérans 1
144 HOOFS PHILIPPE 350 50:43 10,65 5:38 71 Séniors
145 TEMPELS ALAIN 627 50:48 10,63 5:38 17 Vétérans 2
146 BAUWIN SEBASTIEN 908 50:52 10,61 5:39 72 Séniors
147 WILKIN ANTOINE 864 50:55 10,60 5:39 73 Séniors
148 MERCENIER GILLES 907 51:03 10,57 5:40 74 Séniors
149 COLLIN MANON 852 51:05 10,57 5:40 7 Dames
150 PIERRE FABIAN 534 51:07 10,56 5:40 24 Vétérans 1
151 PERROT EMILE 809 51:09 10,56 5:41 18 Vétérans 2
152 DERKENNE CHRISTIAN 824 51:11 10,55 5:41 19 Vétérans 2
153 WEYNAND HELMUT 689 51:17 10,53 5:41 3 Vétérans 4
154 ERNST ANDRE 265 51:32 10,48 5:43 20 Vétérans 2
155 ANCION JOGGING 924 51:41 10,45 5:44 21 Vétérans 2
156 SIMONIS SUZANNE 619 51:45 10,43 5:45 1 Ainées 3
157 HALLEUX ERIC 519 51:47 10,43 5:45 75 Séniors
158 HALLEUX DELPHINE 843 51:49 10,42 5:45 8 Dames
159 MENNICKEN ROGER 494 52:04 10,37 5:47 22 Vétérans 2
160 PUTZ BURKHARD 805 52:12 10,34 5:48 23 Vétérans 2
161 SCHNAKERS JEAN YVES 863 52:14 10,34 5:48 76 Séniors
162 MARECHAL BERNADETTE 438 52:19 10,32 5:48 2 Ainées 3
163 LONNEUX DAMIEN 308 52:25 10,30 5:49 25 Vétérans 1
164 VLAMINCK ALLAIN 837 52:34 10,27 5:50 10 Vétérans 3
165 VANDEGAAR TONY 655 52:49 10,22 5:52 11 Vétérans 3
166 BASTIN VINCENT 910 52:50 10,22 5:52 26 Vétérans 1
167 KNUBBEN MURIEL 889 52:51 10,22 5:52 5 Ainées 2
168 KRICFALUSI YVAN 851 53:02 10,18 5:53 24 Vétérans 2
169 DELHEZ FREDERIC 218 53:16 10,14 5:55 77 Séniors
170 MEYER THOMAS 925 53:18 10,13 5:55 12 Vétérans 3
171 BALTER ANNE 803 53:37 10,07 5:57 9 Dames
172 LAMBERT HENRI 533 53:56 10,01 5:59 27 Vétérans 1
173 SCAPIN NICOLAS 827 54:13 9,96 6:01 11 Espoirs Garçons
174 DUYSENS CHRISTOPHE 844 54:19 9,94 6:02 28 Vétérans 1
175 SCAPIN ROBERT 825 54:22 9,93 6:02 25 Vétérans 2
176 SCHREURS BERNARD 600 54:29 9,91 6:03 78 Séniors
177 DELCOURT CEDRIC 208 54:58 9,82 6:06 79 Séniors
178 GOEBELS NATHALIE 915 55:14 9,77 6:08 3 Ainées 1
179 DERECOGNE JULIEN 900 55:17 9,77 6:08 80 Séniors
180 LAHAYE MARIE 372 55:24 9,74 6:09 10 Dames
181 SOLITRO ANTONY 848 55:26 9,74 6:09 81 Séniors
182 ROUFOSSE UGO 34 55:29 9,73 6:09 26 Vétérans 2
183 LEROY NATHALIE 927 55:38 9,71 6:10 4 Ainées 1
184 JAEGERS MARC 377 55:39 9,70 6:11 29 Vétérans 1
185 GARROY CHRISTOPHE 886 55:40 9,70 6:11 30 Vétérans 1
186 DENOISIEUX CHRISTIAN 229 55:43 9,69 6:11 27 Vétérans 2
187 PIRARD OLIVIER 543 55:49 9,67 6:12 82 Séniors
188 MUSSO GIUSEPPE 479 55:51 9,67 6:12 83 Séniors
189 BRAGARD BENOIT 118 56:29 9,56 6:16 28 Vétérans 2
190 DECELLE RENAUD 849 56:30 9,56 6:16 31 Vétérans 1
191 NOIRFALISE CECILE 523 56:35 9,54 6:17 5 Ainées 1
192 HERMAN SYLVIANE 344 56:36 9,54 6:17 6 Ainées 2
193 DEMONCEAU BERNARD 926 56:38 9,53 6:17 84 Séniors
194 RENARD MARIE 916 56:41 9,53 6:17 11 Dames
195 VANCSOK CATHERINE 861 56:42 9,52 6:18 12 Dames
196 JONLET LIONEL 13 56:44 9,52 6:18 85 Séniors
197 KEIL YVES 509 56:48 9,51 6:18 32 Vétérans 1
198 ISERENTANT GREGORY 891 57:08 9,45 6:20 86 Séniors
199 BECKERS ALEXY 896 57:12 9,44 6:21 12 Espoirs Garçons
200 BRAGARD EDMEE 721 57:30 9,39 6:23 7 Ainées 2
201 SCHLECK SANDRA 857 57:31 9,39 6:23 13 Dames
202 BOUTIER MAXIME 860 57:44 9,35 6:24 87 Séniors
203 DETRY CLAUDY 877 57:50 9,34 6:25 33 Vétérans 1
204 LUCASSEN LAURENCE 845 57:57 9,32 6:26 6 Ainées 1
205 FARRIS MAXIME 865 57:58 9,31 6:26 88 Séniors
206 MOSSOUX PHILIPPE 508 58:10 9,28 6:27 13 Vétérans 3
207 LANNEAU NICOLE 867 58:42 9,20 6:31 8 Ainées 2
208 DELGES WALTER 236 58:44 9,19 6:31 29 Vétérans 2
209 COCQUYT DIDIER 163 58:48 9,18 6:32 30 Vétérans 2
210 DETREZ FRANCK 881 58:52 9,17 6:32 31 Vétérans 2
211 DEFRESNE ALINE 880 58:53 9,17 6:32 7 Ainées 1
212 BOULTON KEVIN 920 59:14 9,11 6:34 89 Séniors
213 FAFCHAMPS THIBAUT 839 59:32 9,07 6:36 13 Espoirs Garçons
214 VANCRAYBEX JULIE 868 59:39 9,05 6:37 14 Dames
215 SANGIOVANNI VIRGINIE 930 59:41 9,05 6:37 15 Dames
216 PLOEMMEN JANINE 828 59:42 9,04 6:38 9 Ainées 2
217 SIMONIS CELIA 613 1:00:16 8,96 6:41 16 Dames
218 MUYTERS CHRISTIAN 514 1:00:46 8,89 6:45 14 Vétérans 3
219 BERTRUME SANDRINE 73 1:00:46 8,89 6:45 8 Ainées 1
220 MUYTERS VALERIE 639 1:00:49 8,88 6:45 9 Ainées 1
221 SONVEAU SARAH 625 1:00:49 8,88 6:45 10 Ainées 1
222 HOULMONT MATHILDE 922 1:00:51 8,87 6:45 17 Dames
223 SCHOONBROODT BENOIT 917 1:02:03 8,70 6:53 90 Séniors
224 BISSOT DYLAN 92 1:02:05 8,70 6:53 14 Espoirs Garçons
225 FRANKEN NOAN 819 1:03:12 8,54 7:01 15 Espoirs Garçons
226 FRANKEN ERIC 823 1:03:15 8,54 7:01 34 Vétérans 1
227 SCHMETZ LOUIS 801 1:03:17 8,53 7:01 1 Vétérans 5
228 SELGUK SINEM 887 1:03:30 8,50 7:03 18 Dames
229 DELAIRESSE GILBERT 862 1:04:31 8,37 7:10 4 Vétérans 4
230 KLEIN LAURENT 904 1:05:13 8,28 7:14 91 Séniors
231 BASTIN MARGAUX 64 1:05:30 8,24 7:16 2 Espoirs Filles
232 CAPELLE VALENTINE 895 1:06:00 8,18 7:20 19 Dames
233 BEUKELAERS PIERRE 894 1:06:00 8,18 7:20 92 Séniors
234 PIRARD THIERRY 812 1:06:34 8,11 7:23 32 Vétérans 2
235 VANNOORENBERGHE PHILIPPE 873 1:06:56 8,07 7:26 33 Vétérans 2
236 HENZ HELMUT 352 1:07:43 7,97 7:31 5 Vétérans 4
237 HERZET MARLENE 254 1:08:34 7,87 7:37 3 Ainées 3
238 DETRY MARIE-FRANCE 210 1:08:34 7,87 7:37 10 Ainées 2
239 SCHAAPS ISABELLE 838 1:09:11 7,80 7:41 20 Dames
240 FRYNS GILBERT 299 1:11:23 7,56 7:55 15 Vétérans 3
241 RENWART JENNIFER 884 1:12:41 7,43 8:04 21 Dames
242 LEONARD MARC 806 1:14:55 7,21 8:19 34 Vétérans 2